THORAD AGENA D DEB, 4968

Orbit data source: Space-Track

THORAD AGENA D DEB, 4968 is space debris in SSO originally from a launch on Wed, 08 Apr 1970 UTC launched from the Air Force Western Test Range (AFWTR). Debris objects in space refer to the collection of defunct objects orbiting the Earth. Examples of debris include non-operational satellites, rocket bodies, and fragments generated from explosions, collisions, or faulty payload assembly.

Loading next visibility...
Identifier
4968, 1970-025GN
Orbit
SSO
Country
Flag of USUS
Related business
Manufacturer
Unknown
Mission
Spacecraft
Bus & Motor
Unknown
Mass
Unknown
Launch date (UTC)
1970-04-08 (56 years ago)
Launch vehicle
Unknown
Launch site
Air Force Western Test Range (AFWTR)
Object type
Payload
Rocket body
Debris
Shape & HBR
Unknown shape, 0.1 m
Radar Cross Section
Medium (>0.1 m² and <1 m²)

Expand to show TLE details & history
Last TLE update: 9 hours ago

TLE from 9 hours ago
0 THORAD AGENA D DEB
1  4968U 70025GN  26256.01237219  .00000124  00000-0  22078-3 0  9996
2  4968 100.1800 270.2414 0019928 161.8166 226.9611 13.62760802796371
Epoch: 2026-09-13T00:17Z
TLE epoch observation values (Epoch: 2026-09-13T00:17:48.957Z)
Latitude
28.16365°
Longitude
-91.71394°
Altitude
1,039.115 km
Speed
7.33 km/s
True Right ascension
17h 39m 00s
True Declination
28° 01' 34"
Sunlit
Object was in daylight at epoch
Visualization orbit readout
Latitude
Unknown
Longitude
Unknown
Altitude
Unknown
Speed
Unknown
Apparent Right ascension
Unknown
Apparent Declination
Unknown
Sunlit
N/A
Visualization observer readout
Local Sidereal Time
01:28:03
Azimuth
Unknown
Elevation
Unknown
Doppler factor
Unknown
Orbital elements
Apogee altitude
1,037.734 km
Perigee altitude
1,008.236 km
Semi-major axis
7,401.122 km
Eccentricity
0.00199
Inclination
100.18°
RAAN
270.2414°
Arg. of periapsis
161.8166°
True anomaly
226.79448°
Mean anomaly
226.9611°
Eccentric anomaly
226.87776°
Mean motion
3.40876 °/min
Orbital period
105.61 mins
BSTAR
0.00022078
Loading maneuver chart data...
Computing Atmospheric mass density...

Documentation

Showing up to 5 results
|